#timestamp,LO_Frequency,Hit 
1504450815.4,286047001.8,N
1504450835.3,286047004.8,N
1504450855.1,286047006.0,N
1504450875.8,286047005.9,N
1504450895.7,286047002.1,N
1504450915.5,286047003.8,N
1504450935.3,286047004.2,N
1504450955.2,286047001.5,N
1504450975.9,286047002.7,N
1504450995.7,286046999.9,N
1504451015.6,286047000.7,N
1504451035.4,286046996.9,N
1504451055.2,286046998.3,N
1504451075.1,286046995.0,N
1504451076.0,286046995.0,N
1504451095.8,286046996.0,N
1504451115.6,286046997.0,N
1504451135.5,286046998.5,N
1504451155.3,286046999.8,N
1504451175.1,286046998.6,N
1504451195.8,286046998.3,N
1504451215.7,286046996.0,N
1504451235.5,286046990.2,N
1504451255.3,286046992.3,N
1504451275.2,286046994.1,N
1504451295.0,286046994.4,N
1504451295.9,286046994.4,N
1504451315.1,286046995.2,N
1504451335.9,286046999.6,N
1504451355.7,286046999.2,N
1504451375.5,286046999.6,N
1504451395.4,286046995.3,N
1504451415.2,286046997.3,N
1504451435.0,286046998.4,N
1504451435.9,286046998.4,N
1504451455.8,286046999.5,N
1504451475.6,286046998.1,N
1504451495.4,286046999.2,N
1504451515.3,286046997.4,N
1504451535.1,286046995.3,N
1504451536.0,286046995.3,N
1504451555.8,286046995.8,N
1504451575.7,286046995.6,N
1504451595.5,286046996.5,N
1504451615.3,286046995.5,N
1504451635.2,286046998.8,N
1504451655.9,286046998.4,N
1504451675.7,286046997.6,N
1504451695.6,286046996.2,N
1504451715.4,286046998.5,N
1504451735.2,286046996.8,N
1504451755.1,286046998.7,N
1504451756.0,286046998.7,N
1504451775.8,286047000.5,N
1504451795.6,286046998.7,N
1504451815.5,286046997.7,N
1504451835.3,286046998.9,N
1504451855.1,286046994.9,P
1504451875.9,286046996.8,N
1504451895.7,286046997.9,N
1504451915.5,286046995.6,P
1504451935.4,286046997.5,P
1504451955.2,286046997.2,P
1504451975.0,286047000.5,N
1504451975.9,286047000.5,N
1504451995.8,286046999.8,N
1504452015.6,286047002.2,N
1504452035.4,286047001.4,N
1504452055.3,286047004.7,N
1504452075.1,286047000.6,N
1504452076.0,286047000.6,N
1504452095.8,286047000.9,N
1504452115.7,286046999.4,N
1504452135.5,286047001.9,N
1504452155.3,286047005.9,N
1504452175.2,286047004.6,N
1504452195.9,286047003.8,N
1504452215.7,286047001.7,N
1504452235.5,286047001.2,N
1504452255.4,286046999.3,N
1504452275.2,286046999.1,N
1504452295.0,286047001.8,N
1504452295.9,286047001.8,N
1504452315.8,286047002.4,N
1504452335.6,286046998.7,N
1504452355.4,286047003.9,N
1504452375.3,286047000.4,N
1504452395.1,286047002.3,N
1504452415.8,286046998.8,N
1504452435.1,286046996.5,N
1504452455.9,286046998.3,N
1504452475.7,286047001.1,N
1504452495.5,286047000.4,N
1504452515.3,286046998.2,N
1504452535.2,286047002.8,N
1504452555.0,286047002.3,N
1504452555.9,286047002.3,N
1504452575.7,286046996.6,N
1504452595.6,286046997.3,N
1504452615.4,286046998.2,N
1504452635.2,286047000.6,N
1504452655.1,286047000.3,N
1504452656.0,286047000.3,N
1504452675.8,286046999.9,N
1504452695.6,286047001.7,N
1504452715.5,286047001.6,N
1504452735.3,286047003.2,N
1504452755.1,286047005.1,N
1504452775.9,286047001.6,N
1504452795.7,286047003.1,N
1504452815.5,286047001.9,N
1504452835.4,286047001.1,N
1504452855.2,286047001.9,N
1504452875.0,286047000.6,N
1504452875.9,286047000.6,N
1504452895.8,286047002.9,N
1504452915.6,286047001.9,N
1504452935.4,286047002.8,N
1504452955.3,286047000.0,N
1504452975.1,286046997.5,N
1504452976.0,286046997.5,N
1504452995.8,286046996.8,N
1504453015.7,286046997.1,N
1504453035.5,286046999.3,N
1504453055.3,286046999.8,N
1504453075.1,286047002.0,N
1504453095.9,286047003.7,N
1504453115.7,286047002.3,N
1504453135.5,286047004.1,N
1504453155.4,286047002.7,N
1504453175.2,286047000.1,N
1504453195.0,286047002.3,N
1504453195.9,286047002.3,N
1504453215.8,286047000.8,N
1504453235.6,286046999.0,N
1504453255.4,286047000.7,N
1504453275.3,286047000.9,N
1504453295.1,286047002.0,N
1504453296.0,286047002.0,N
1504453315.8,286046998.5,N
1504453335.7,286046996.2,N
1504453355.5,286046997.0,N
1504453375.3,286046996.7,N
1504453395.2,286046995.6,N
1504453415.9,286046997.4,N
1504453435.7,286046996.9,N
1504453455.6,286047001.1,N
1504453475.4,286047000.8,N
1504453495.2,286046999.1,N
1504453515.0,286046996.5,N
1504453516.0,286046996.5,N
1504453535.8,286046998.3,N
1504453555.6,286046998.3,N
1504453575.4,286047004.0,N
1504453595.3,286047003.9,N
1504453615.1,286047001.3,N
1504453635.8,286047002.5,N
1504453655.7,286046996.8,N
1504453675.5,286046995.2,N
1504453695.3,286046995.1,N
1504453715.2,286046999.1,N
1504453735.9,286046996.4,N
1504453755.7,286046997.4,N
1504453775.8,286046997.6,N
1504453795.6,286046998.6,N
1504453815.5,286046998.9,N
1504453835.3,286047000.6,N
1504453855.1,286046998.6,N
1504453875.9,286047002.7,N
1504453895.7,286047000.2,N
1504453915.5,286046999.3,N
1504453935.4,286047000.0,N
1504453955.2,286047000.3,N
1504453975.0,286047002.8,N
1504453975.9,286047002.8,N
1504453995.8,286047000.5,N
1504454015.6,286047002.3,N
1504454035.4,286046998.4,N
1504454055.3,286046999.9,N
1504454075.1,286047003.7,N
1504454076.0,286047003.7,N
1504454095.8,286047003.9,N
1504454115.7,286047002.6,N
1504454135.5,286047004.0,N
1504454155.3,286047002.8,N
1504454175.1,286047002.0,N
1504454195.9,286047000.9,N
1504454215.7,286046999.7,N
1504454235.5,286047004.1,N
1504454255.4,286047004.2,N
1504454275.2,286047002.1,N
1504454295.0,286047002.6,N
1504454295.9,286047002.6,N
1504454315.8,286047001.3,N
1504454335.6,286047000.4,N
1504454355.4,286047001.4,N
1504454375.3,286047000.2,N
1504454395.1,286046999.5,N
